Location: Spruce Knob
(38.6995°N, 79.5330°W)
Time: 19:55:14
(UTC-04:00)

A-11 Canister half - Pass Details

Date: 06 February 2022
Orbit: 1513 x 1686 km, 47.2° (Epoch: 26 May)

Event Time Altitude Azimuth Distance (km) Brightness Sun altitude
Rises 19:49:13 0° 300° (WNW) 4,722 12.5 -24.4°
Reaches altitude 10° 19:52:19 10° 299° (WNW) 3,718 11.8 -25.0°
Maximum altitude 20:01:35 73° 217° (SW) 1,575 9.0 -26.9°
Enters shadow 20:06:04 35° 141° (SE) 2,264 9.5 -27.7°
Drops below altitude 10° 20:10:44 10° 134° (SE) 3,663 - -28.6°
Sets 20:13:46 0° 133° (SE) 4,648 - -29.2°
